Home > Time Zones > World Clock > Weather > U.S.A. > Hilo > Past weeks

Flag for U.S.A. Weather past 2 weeks in Hilo, Hawaii, U.S.A.

Now
84 °F

Passing clouds.


Feels Like: 84 °F
Forecast: 66 / 83 °F
Wind: 10 mph from Northwest

Location: Hilo International Airport

Current Time: Jan 29, 2015 at 12:25:22 PM

Latest Report: Jan 29, 2015 at 11:53 AM


Visibility: 10 mi

Pressure: 29.90 "Hg

Humidity: 45%

Dew point: 60 °F

Location of HiloLocation

Historic Weather in Hilo — Graph

°F

Hilo temperature yesterday

Maximum temperature yesterday: 80 °F (at 1:53 PM)
Minimum temperature yesterday: 67 °F (at 11:53 PM)
Average temperature yesterday: 73 °F

Past Weeks' High & Low Weather Summary

 TemperatureHumidityPressure
High84 °F (Jan 15, 12:53 PM)94% (Jan 24, 7:23 PM)30.12 "Hg (Jan 24, 7:23 PM)
Low63 °F (Jan 22, 5:53 AM)42% (Jan 16, 11:00 AM)29.89 "Hg (Jan 28, 2:53 PM)
Average73 °F73%30.00 "Hg
* Reported Jan 14 10:53 AM — Jan 29 10:53 AM, Hilo, Weather by CustomWeather, © 2014

Note: Actual official high and low records may vary slightly from our data, if they occured in-between our weather recording intervals... More about our weather records

Advertising

Hilo weather history for previous 24 hours

 ConditionsComfort  
Time TempWeatherWind HumidityBarometerVisibility
10:53 AM
Jan 29
82 °FPassing clouds.8 mph49%29.94 "Hg10 mi
9:53 AM79 °FPassing clouds.8 mph58%29.96 "Hg10 mi
8:53 AM73 °FPassing clouds.No wind59%29.96 "Hg10 mi
7:53 AM68 °FPassing clouds.6 mph70%29.95 "Hg10 mi
6:53 AM64 °FClear.7 mph78%29.94 "Hg10 mi
5:53 AM64 °FClear.6 mph78%29.91 "Hg10 mi
4:53 AM64 °FClear.8 mph78%29.90 "Hg10 mi
3:53 AM65 °FClear.8 mph76%29.91 "Hg10 mi
2:53 AM66 °FClear.7 mph78%29.92 "Hg10 mi
1:53 AM66 °FClear.8 mph81%29.94 "Hg10 mi
12:53 AM67 °FOvercast.7 mph81%29.95 "Hg10 mi
11:53 PM
Jan 28
67 °FPassing clouds.6 mph87%29.96 "Hg10 mi
10:53 PM68 °FPassing clouds.5 mph87%29.96 "Hg10 mi
9:53 PM69 °FPassing clouds.5 mph87%29.96 "Hg10 mi
8:53 PM71 °FOvercast.3 mph81%29.96 "Hg10 mi
7:53 PM72 °FOvercast.3 mph78%29.96 "Hg10 mi
7:18 PM72 °FOvercast.No wind83%29.95 "Hg10 mi
7:02 PM73 °FMostly cloudy.No wind74%29.94 "Hg10 mi
6:53 PM73 °FMostly cloudy.No wind76%29.93 "Hg10 mi
5:53 PM75 °FPartly sunny.No wind69%29.93 "Hg10 mi
4:53 PM76 °FOvercast.6 mph67%29.91 "Hg10 mi
3:53 PM76 °FPartly sunny.9 mph64%29.90 "Hg10 mi
2:53 PM77 °FScattered clouds.8 mph62%29.89 "Hg10 mi
1:53 PM80 °FScattered clouds.10 mph56%29.90 "Hg10 mi
12:53 PM79 °FBroken clouds.10 mph54%29.93 "Hg10 mi
Weather by CustomWeather, © 2014

See weather overviewHow to use our weather pages